Home   Weather   Cincinnati   Past weeks
Flag for USA

Past Weather in Cincinnati, Ohio, USA — Yesterday and Last 2 Weeks

Now
71 °F

Passing clouds.


Feels Like: 68 °F
Forecast: 82 / 68 °F
Wind: No wind

Location: Cincinnati Municipal Airport Lunken Field

Current Time: May 22, 2019 at 11:01:24 pm

Latest Report: May 22, 2019 at 9:53 pm


Visibility: 9 mi

Pressure: 30.04 "Hg

Humidity: 90%

Dew Point: 68 °F

Location of CincinnatiLocation

Past Weather in Cincinnati — Graph

°F

Cincinnati Temperature Yesterday

Maximum temperature yesterday: 71 °F (at 5:53 pm)
Minimum temperature yesterday: 50 °F (at 3:53 am)
Average temperature yesterday: 59 °F

High & Low Weather Summary for the Past Weeks

 TemperatureHumidityPressure
High87 °F (May 18, 1:53 pm)100% (May 10, 12:35 am)30.16 "Hg (May 10, 12:35 am)
Low41 °F (May 14, 5:34 am)37% (May 14, 6:53 pm)29.73 "Hg (May 12, 4:53 am)
Average62 °F78%29.95 "Hg
* Reported May 7 8:53 pm — May 22 8:53 pm, Cincinnati. Weather by CustomWeather, © 2019

Note: Actual official high and low records may vary slightly from our data, if they occured in-between our weather recording intervals... More about our weather records

Advertising

Cincinnati Weather History for the Previous 24 Hours

Scroll right to see more
 ConditionsComfort  
Time TempWeatherWind HumidityBarometerVisibility
8:53 pm
Wed, May 22
72 °FPassing clouds.No wind93%30.03 "Hg8 mi
7:53 pm76 °FMostly cloudy.No wind77%30.02 "Hg10 mi
6:53 pm76 °FLight rain. Overcast.No wind77%30.03 "Hg9 mi
5:53 pm79 °FBroken clouds.No wind67%30.00 "Hg10 mi
4:53 pm78 °FLight rain. Cloudy.7 mph69%30.01 "Hg10 mi
3:53 pm81 °FPartly sunny.9 mph62%29.99 "Hg10 mi
2:53 pm83 °FSunny.10 mph57%29.99 "Hg10 mi
1:53 pm83 °FPassing clouds.13 mph51%29.98 "Hg10 mi
12:53 pm82 °FScattered clouds.14 mph58%30.00 "Hg10 mi
11:53 am82 °FSunny.15 mph58%29.98 "Hg10 mi
10:53 am76 °FPartly sunny.7 mph64%29.98 "Hg10 mi
9:53 am72 °FSunny.10 mph66%29.97 "Hg10 mi
8:53 am65 °FPassing clouds.5 mph73%29.98 "Hg10 mi
7:53 am62 °FBroken clouds.No wind75%29.99 "Hg10 mi
6:53 am57 °FPassing clouds.No wind83%29.97 "Hg10 mi
5:53 am56 °FPassing clouds.5 mph81%29.97 "Hg10 mi
4:53 am56 °FClear.3 mph81%29.99 "Hg10 mi
3:53 am54 °FPassing clouds.5 mph86%29.99 "Hg10 mi
2:53 am57 °FClear.3 mph69%29.99 "Hg10 mi
1:53 am59 °FClear.3 mph62%29.99 "Hg10 mi
12:53 am60 °FClear.3 mph62%30.01 "Hg10 mi
11:53 pm
Tue, May 21
59 °FClear.5 mph67%30.03 "Hg10 mi
Weather by CustomWeather, © 2019

See weather overview